Regional Weather Roundup
Issued by NWS Memphis, TN

Home | Current Version | Previous Version | Text Only | Print | Product List | Glossary On
Versions: 1 2 3 4 5 6 7 8 9 10 11 12 13 14 15 16 17 18 19 20 21 22 23 24 25 26 27 28 29 30 31 32 33 34 35 36 37 38 39 40 41 42 43 44 45 46 47 48 49 50
000
ASUS44 KMEG 291200
RWRMEG
MEMPHIS CWA HOURLY WEATHER ROUNDUP
NATIONAL WEATHER SERVICE MEMPHIS TN
700 AM CDT FRI JUL 29 2016

...WEST TENNESSEE...

CITY           SKY/WX    TMP DP  RH WIND       PRES   REMARKS
MEMPHIS INTL   CLOUDY    77  72  84 S9        29.95F
6HR MIN TEMP:  76; 6HR MAX TEMP:  78;

NWS MEMPHIS      N/A     76 N/A N/A MISG        N/A
JACKSON        CLOUDY    75  74  96 S8        29.95F
6HR MIN TEMP:  75; 6HR MAX TEMP:  77;

LEXINGTON      CLOUDY    75  73  94 S6        29.97S
DYERSBURG      CLOUDY   N/A N/A N/A MISG        N/A
UNION CITY     CLOUDY    73  73 100 S3        29.93S
PARIS          PTSUNNY   73  73 100 SW5       29.96S


...EASTERN ARKANSAS...

CITY           SKY/WX    TMP DP  RH WIND       PRES   REMARKS
JONESBORO      CLOUDY    76  74  93 SW12      29.94R FOG
6HR MIN TEMP:  76; 6HR MAX TEMP:  78;

WEST MEMPHIS   CLOUDY    74  72  93 S8        29.94S
6HR MIN TEMP:  74; 6HR MAX TEMP:  75;

BATESVILLE     CLOUDY    75  73  94 S5        29.93R
6HR MIN TEMP:  73; 6HR MAX TEMP:  75;

WALNUT RIDGE   CLOUDY    73  70  88 CALM      29.92R
6HR MIN TEMP:  73; 6HR MAX TEMP:  75; 6HR PCP:  0.01;

BLYTHEVILLE    CLOUDY    76  74  93 SW8       29.94R
6HR MIN TEMP:  73; 6HR MAX TEMP:  77; 6HR PCP: TRACE;

SEARCY         CLOUDY    74  74 100 VRB6      29.97R FOG
6HR MIN TEMP:  74; 6HR MAX TEMP:  76;

STUTTGART      CLOUDY    73  68  83 SW12      29.96R
6HR MIN TEMP:  73; 6HR MAX TEMP:  75;

PINE BLUFF     CLOUDY    73  70  90 SW8       29.97R
6HR MIN TEMP:  72; 6HR MAX TEMP:  74;

MONTICELLO     CLEAR     74  71  91 W5        29.98S
6HR MIN TEMP:  74; 6HR MAX TEMP:  76;



...NORTH MISSISSIPPI...

CITY           SKY/WX    TMP DP  RH WIND       PRES   REMARKS
TUPELO         CLOUDY    76  71  85 CALM      30.01R
6HR MIN TEMP:  75; 6HR MAX TEMP:  76;

TUNICA         MOCLDY    72  72 100 S6        29.97F
CLARKSDALE     CLOUDY    75  75 100 S6        29.98R
GREENWOOD      CLOUDY    74  71  91 SW3       30.01R
6HR MIN TEMP:  74; 6HR MAX TEMP:  74; 6HR PCP: TRACE;

COLUMBUS       CLOUDY    74  74 100 S2        30.01R
6HR MIN TEMP:  73; 6HR MAX TEMP:  74;

GOLDEN TRIANGL MOCLDY    73  68  83 SW5       30.01R


...SOUTHEAST MISSOURI...

CITY           SKY/WX    TMP DP  RH WIND       PRES   REMARKS
KENNETT        CLOUDY    77  77 100 W3        29.92R FOG
WEST PLAINS    CLEAR     69  65  86 CALM      30.00R
6HR MIN TEMP:  67; 6HR MAX TEMP:  69;

POPLAR BLUFF   CLEAR     71  69  93 CALM      29.93R
6HR MIN TEMP:  71; 6HR MAX TEMP:  73;

CAPE GIRARDEAU CLOUDY    72  71  97 W5        29.92R
6HR MIN TEMP:  71; 6HR MAX TEMP:  74;



...NORTHWEST ALABAMA...

CITY           SKY/WX    TMP DP  RH WIND       PRES   REMARKS
MUSCLE SHOALS  CLOUDY    75  72  90 CALM      30.01S
6HR MIN TEMP:  73; 6HR MAX TEMP:  76;



...MIDDLE TENNESSEE...

CITY           SKY/WX    TMP DP  RH WIND       PRES   REMARKS
NASHVILLE      PTSUNNY   77  73  87 S6        29.97S
6HR MIN TEMP:  77; 6HR MAX TEMP:  78;

CLARKSVILLE    CLOUDY    75  73  93 CALM      29.95R
6HR MIN TEMP:  74; 6HR MAX TEMP:  78; 6HR PCP:  0.01;

COLUMBIA       CLOUDY   N/A N/A N/A S5        29.98S


...WESTERN KENTUCKY...

CITY           SKY/WX    TMP DP  RH WIND       PRES   REMARKS
PADUCAH        SUNNY     74  71  91 S3        29.92R
6HR MIN TEMP:  73; 6HR MAX TEMP:  75;

FORT CAMPBELL  CLOUDY    75  73  94 SW3       29.95R


...CENTRAL ARKANSAS...

CITY           SKY/WX    TMP DP  RH WIND       PRES   REMARKS
LITTLE ROCK    CLOUDY    76  72  87 SW12      29.96R FOG
6HR MIN TEMP:  76; 6HR MAX TEMP:  77;



SKY/WX REPORTED AS FAIR MEANS FEW OR NO CLOUDS BELOW
12 THOUSAND FEET.





USA.gov is the U.S. government's official web portal to all federal, state and local government web resources and services.